�������l�o���
Date,Time,MP-1(��Sv/h),MP-2(��Sv/h),MP-3(��Sv/h),MP-4(��Sv/h),MP-5(��Sv/h),MP-6(��Sv/h),MP-7(��Sv/h),MP-8(��Sv/h),����,����(m/s),���J
2023/09/19,00:00,0.538,0.811,0.494,1.004,0.718,0.323,0.574,0.534,�k��,0.9,��
2023/09/19,00:10,0.536,0.815,0.493,1.003,0.717,0.324,0.575,0.534,-,CALM,��
2023/09/19,00:20,0.535,0.811,0.493,1.004,0.717,0.324,0.576,0.534,��쐼,1.1,��
2023/09/19,00:30,0.536,0.815,0.495,1.004,0.719,0.324,0.575,0.534,��,2.2,��
2023/09/19,00:40,0.538,0.810,0.496,1.003,0.717,0.324,0.576,0.534,��,2.3,��
2023/09/19,00:50,0.537,0.812,0.496,1.004,0.718,0.325,0.573,0.533,��쓌,2.0,��
2023/09/19,01:00,0.537,0.813,0.496,1.006,0.717,0.323,0.575,0.535,��쓌,1.9,��
2023/09/19,01:10,0.536,0.814,0.495,1.003,0.718,0.324,0.575,0.533,��쓌,2.3,��
2023/09/19,01:20,0.537,0.813,0.494,1.006,0.717,0.323,0.575,0.534,�쓌,0.9,��
2023/09/19,01:30,0.536,0.812,0.495,1.004,0.718,0.325,0.575,0.533,��쓌,1.4,��
2023/09/19,01:40,0.537,0.812,0.494,1.002,0.715,0.326,0.576,0.534,��,1.2,��
2023/09/19,01:50,0.537,0.813,0.496,1.005,0.717,0.324,0.574,0.533,��쓌,1.4,��
2023/09/19,02:00,0.537,0.813,0.493,1.005,0.718,0.324,0.575,0.533,��,1.2,��
2023/09/19,02:10,0.538,0.815,0.497,1.005,0.716,0.324,0.575,0.532,��,1.7,��
2023/09/19,02:20,0.537,0.813,0.496,1.007,0.715,0.324,0.575,0.535,��,2.0,��
2023/09/19,02:30,0.537,0.814,0.494,1.003,0.718,0.324,0.575,0.534,��,1.7,��
2023/09/19,02:40,0.537,0.811,0.494,1.004,0.717,0.324,0.575,0.533,��쓌,2.6,��
2023/09/19,02:50,0.536,0.812,0.495,1.005,0.717,0.324,0.573,0.535,��,2.3,��
2023/09/19,03:00,0.538,0.813,0.495,1.007,0.719,0.325,0.575,0.534,��쐼,2.6,��
2023/09/19,03:10,0.538,0.812,0.496,1.005,0.717,0.325,0.576,0.533,��쐼,2.5,��
2023/09/19,03:20,0.536,0.814,0.494,1.004,0.717,0.323,0.574,0.535,�쐼,2.6,��
2023/09/19,03:30,0.535,0.814,0.495,1.006,0.716,0.324,0.574,0.534,�쐼,2.2,��
2023/09/19,03:40,0.535,0.811,0.495,1.006,0.716,0.323,0.574,0.534,�쐼,1.2,��
2023/09/19,03:50,0.536,0.815,0.494,1.006,0.716,0.323,0.574,0.533,���쐼,1.2,��
2023/09/19,04:00,0.536,0.813,0.495,1.003,0.718,0.324,0.575,0.534,���k��,1.2,��
2023/09/19,04:10,0.536,0.814,0.496,1.005,0.718,0.323,0.574,0.533,��,2.5,��
2023/09/19,04:20,0.535,0.813,0.494,1.002,0.717,0.324,0.575,0.534,��,1.9,��
2023/09/19,04:30,0.537,0.813,0.496,1.007,0.715,0.324,0.575,0.533,-,CALM,��
2023/09/19,04:40,0.537,0.812,0.496,1.005,0.717,0.323,0.575,0.534,��,0.6,��
2023/09/19,04:50,0.537,0.814,0.496,1.005,0.717,0.325,0.575,0.534,-,CALM,��
2023/09/19,05:00,0.538,0.813,0.495,1.006,0.719,0.323,0.575,0.534,��쓌,1.1,��
2023/09/19,05:10,0.538,0.812,0.497,1.003,0.720,0.323,0.575,0.534,��,1.7,��
2023/09/19,05:20,0.536,0.813,0.496,1.005,0.718,0.324,0.574,0.535,��,1.7,��
2023/09/19,05:30,0.537,0.812,0.495,1.003,0.718,0.324,0.576,0.535,��,1.9,��
2023/09/19,05:40,0.535,0.813,0.497,1.007,0.716,0.325,0.575,0.533,��,2.2,��
2023/09/19,05:50,0.537,0.814,0.494,1.007,0.718,0.323,0.576,0.534,��쐼,2.5,��
2023/09/19,06:00,0.538,0.812,0.494,1.006,0.717,0.324,0.574,0.533,��쐼,2.3,��
2023/09/19,06:10,0.536,0.809,0.494,1.004,0.714,0.324,0.576,0.533,��쐼,1.9,��
2023/09/19,06:20,0.536,0.813,0.495,1.005,0.718,0.324,0.575,0.534,��쐼,1.2,��
2023/09/19,06:30,0.538,0.813,0.494,1.005,0.719,0.325,0.576,0.535,���k��,0.9,��
2023/09/19,06:40,0.535,0.813,0.496,1.004,0.717,0.324,0.576,0.534,�k��,0.8,��
2023/09/19,06:50,0.538,0.811,0.495,1.005,0.718,0.324,0.576,0.533,�k�k��,0.9,��
2023/09/19,07:00,0.536,0.810,0.496,1.006,0.715,0.324,0.576,0.535,�k��,1.1,��
2023/09/19,07:10,0.538,0.813,0.495,1.005,0.717,0.323,0.576,0.536,�k�k��,1.2,��
2023/09/19,07:20,0.537,0.812,0.495,1.005,0.716,0.324,0.576,0.535,�k�k��,1.2,��
2023/09/19,07:30,0.537,0.813,0.497,1.006,0.716,0.325,0.577,0.535,�k�k��,1.5,��
2023/09/19,07:40,0.537,0.813,0.496,1.004,0.716,0.326,0.576,0.536,�k�k��,1.1,��
2023/09/19,07:50,0.537,0.811,0.495,1.004,0.717,0.324,0.577,0.534,�k�k��,0.6,��
2023/09/19,08:00,0.537,0.813,0.494,1.007,0.719,0.324,0.577,0.534,�k�k��,0.9,��
2023/09/19,08:10,0.536,0.811,0.494,1.007,0.718,0.325,0.577,0.534,���쓌,0.9,��
2023/09/19,08:20,0.537,0.811,0.495,1.007,0.718,0.325,0.577,0.533,���k��,0.8,��
2023/09/19,08:30,0.537,0.812,0.495,1.006,0.717,0.323,0.578,0.535,���k��,0.6,��
2023/09/19,08:40,0.536,0.812,0.496,1.003,0.716,0.324,0.578,0.535,��,0.6,��
2023/09/19,08:50,0.537,0.813,0.497,1.006,0.717,0.324,0.577,0.536,�k��,0.9,��
2023/09/19,09:00,0.535,0.816,0.495,1.005,0.717,0.324,0.577,0.534,���k��,1.2,��
2023/09/19,09:10,0.535,0.814,0.496,1.005,0.717,0.325,0.575,0.533,��,1.5,��
2023/09/19,09:20,0.539,0.813,0.495,1.006,0.715,0.326,0.576,0.534,���쓌,1.9,��
2023/09/19,09:30,0.538,0.815,0.497,1.007,0.717,0.325,0.576,0.535,���쓌,2.3,��
2023/09/19,09:40,0.537,0.815,0.494,1.005,0.717,0.324,0.577,0.534,���쓌,2.5,��
2023/09/19,09:50,0.536,0.814,0.494,1.005,0.714,0.324,0.576,0.533,�쓌,3.2,��
2023/09/19,10:00,0.538,0.814,0.497,1.006,0.716,0.324,0.577,0.533,�쓌,3.9,��
2023/09/19,10:10,0.537,0.816,0.496,1.004,0.717,0.324,0.577,0.534,��쓌,4.1,��
2023/09/19,10:20,0.536,0.817,0.496,1.005,0.716,0.323,0.576,0.534,�쓌,4.5,��
2023/09/19,10:30,0.537,0.813,0.495,1.006,0.716,0.323,0.577,0.535,�쓌,4.3,��
2023/09/19,10:40,0.537,0.815,0.495,1.007,0.719,0.324,0.577,0.534,��쓌,4.0,��
2023/09/19,10:50,0.536,0.814,0.495,1.006,0.720,0.323,0.576,0.534,��쓌,5.1,��
2023/09/19,11:00,0.537,0.815,0.494,1.006,0.718,0.323,0.576,0.534,��쓌,5.9,��
2023/09/19,11:10,0.537,0.816,0.494,1.004,0.719,0.317,0.575,0.534,��쓌,5.4,��
2023/09/19,11:20,0.536,0.813,0.496,1.006,0.720,0.318,0.576,0.535,��쓌,5.8,��
2023/09/19,11:30,0.535,0.815,0.496,1.007,0.720,0.321,0.576,0.535,��쓌,5.5,��
2023/09/19,11:40,0.537,0.813,0.496,1.006,0.720,0.322,0.578,0.534,��쓌,6.4,��
2023/09/19,11:50,0.537,0.812,0.495,1.007,0.719,0.324,0.578,0.534,��쓌,7.5,��
2023/09/19,12:00,0.537,0.815,0.495,1.008,0.720,0.323,0.575,0.534,��쓌,7.0,��
2023/09/19,12:10,0.537,0.817,0.495,1.006,0.721,0.323,0.576,0.533,��쓌,6.9,��
2023/09/19,12:20,0.538,0.816,0.496,1.007,0.719,0.323,0.576,0.535,��쓌,6.5,��
2023/09/19,12:30,0.538,0.816,0.498,1.006,0.721,0.324,0.577,0.534,��쓌,7.3,��
2023/09/19,12:40,0.537,0.817,0.498,1.005,0.720,0.323,0.575,0.535,��쓌,5.9,��
2023/09/19,12:50,0.538,0.817,0.495,1.005,0.722,0.324,0.577,0.536,��쓌,7.0,��
2023/09/19,13:00,0.537,0.817,0.496,1.007,0.720,0.324,0.576,0.535,��쓌,6.8,��
2023/09/19,13:10,0.538,0.818,0.497,1.009,0.721,0.324,0.575,0.534,��쓌,8.2,��
2023/09/19,13:20,0.539,0.816,0.497,1.006,0.720,0.326,0.576,0.534,��쓌,8.1,��
2023/09/19,13:30,0.538,0.815,0.495,1.009,0.723,0.322,0.579,0.534,��쓌,7.0,��
2023/09/19,13:40,0.540,0.817,0.497,1.008,0.722,0.325,0.578,0.536,��쓌,7.0,��
2023/09/19,13:50,0.536,0.816,0.496,1.009,0.722,0.322,0.579,0.534,��쓌,6.0,��
2023/09/19,14:00,0.538,0.815,0.497,1.008,0.722,0.324,0.576,0.536,��쓌,5.0,��
2023/09/19,14:10,0.537,0.816,0.496,1.007,0.721,0.323,0.575,0.534,��,2.9,��
2023/09/19,14:20,0.538,0.814,0.494,1.007,0.721,0.323,0.575,0.534,�쓌,3.9,��
2023/09/19,14:30,0.537,0.816,0.496,1.005,0.719,0.324,0.576,0.534,�쓌,4.9,��
2023/09/19,14:40,0.537,0.815,0.494,1.007,0.723,0.323,0.574,0.534,�쓌,5.8,��
2023/09/19,14:50,0.538,0.815,0.496,1.008,0.721,0.323,0.572,0.535,��쓌,4.8,��
2023/09/19,15:00,0.536,0.814,0.494,1.004,0.721,0.321,0.576,0.535,��쓌,2.2,��
2023/09/19,15:10,0.536,0.816,0.497,1.008,0.721,0.322,0.575,0.535,�쐼,2.2,��
2023/09/19,15:20,0.537,0.814,0.495,1.006,0.721,0.322,0.577,0.534,�쐼,2.5,��
2023/09/19,15:30,0.537,0.815,0.495,1.005,0.721,0.324,0.575,0.533,�쐼,2.3,��
2023/09/19,15:40,0.538,0.816,0.496,1.009,0.720,0.321,0.575,0.533,���k��,2.6,�L
2023/09/19,15:50,0.537,0.816,0.495,1.006,0.719,0.324,0.576,0.535,�k��,2.3,�L
2023/09/19,16:00,0.537,0.817,0.496,1.008,0.723,0.324,0.575,0.534,���k��,1.9,��
2023/09/19,16:10,0.537,0.818,0.497,1.008,0.703,0.323,0.576,0.535,���k��,3.7,��
2023/09/19,16:20,0.538,0.818,0.497,1.010,0.703,0.325,0.577,0.536,���k��,4.3,�L
2023/09/19,16:30,0.538,0.817,0.497,1.010,0.705,0.324,0.577,0.535,���k��,4.5,�L
2023/09/19,16:40,0.539,0.816,0.497,1.008,0.699,0.325,0.576,0.534,���k��,3.4,��
2023/09/19,16:50,0.540,0.815,0.497,1.007,0.720,0.325,0.577,0.535,���k��,2.0,��
2023/09/19,17:00,0.539,0.818,0.498,1.009,0.722,0.325,0.576,0.534,���k��,3.2,��
2023/09/19,17:10,0.538,0.816,0.497,1.009,0.721,0.324,0.576,0.534,���k��,1.7,��
2023/09/19,17:20,0.538,0.816,0.497,1.009,0.722,0.326,0.576,0.535,���k��,0.9,��
2023/09/19,17:30,0.539,0.819,0.498,1.009,0.721,0.326,0.577,0.535,�k��,1.5,��
2023/09/19,17:40,0.538,0.817,0.497,1.007,0.721,0.326,0.576,0.534,�k�k��,1.1,��
2023/09/19,17:50,0.540,0.816,0.497,1.007,0.722,0.325,0.575,0.533,�k��,0.9,��
2023/09/19,18:00,0.538,0.818,0.497,1.007,0.723,0.326,0.575,0.535,���k��,1.9,��
2023/09/19,18:10,0.539,0.817,0.497,1.008,0.724,0.326,0.575,0.535,�k��,3.2,��
2023/09/19,18:20,0.539,0.818,0.496,1.009,0.723,0.326,0.576,0.533,�k��,3.5,��
2023/09/19,18:30,0.539,0.817,0.499,1.009,0.723,0.326,0.576,0.533,���k��,3.4,��
2023/09/19,18:40,0.538,0.817,0.499,1.009,0.723,0.324,0.577,0.535,��,3.4,��
2023/09/19,18:50,0.540,0.816,0.497,1.006,0.723,0.327,0.576,0.534,��,3.6,��
2023/09/19,19:00,0.539,0.816,0.497,1.008,0.721,0.326,0.576,0.534,��,5.1,��
2023/09/19,19:10,0.539,0.815,0.497,1.008,0.725,0.325,0.576,0.533,��,5.4,��
2023/09/19,19:20,0.538,0.818,0.498,1.008,0.722,0.324,0.576,0.535,���k��,5.0,��
2023/09/19,19:30,0.537,0.817,0.496,1.012,0.722,0.323,0.577,0.536,���k��,4.6,��
2023/09/19,19:40,0.538,0.817,0.496,1.008,0.723,0.326,0.577,0.534,���k��,5.5,��
2023/09/19,19:50,0.538,0.819,0.498,1.008,0.723,0.327,0.575,0.533,�k��,4.5,��
2023/09/19,20:00,0.539,0.817,0.497,1.009,0.723,0.326,0.575,0.535,���k��,3.7,��
2023/09/19,20:10,0.538,0.817,0.499,1.006,0.722,0.325,0.576,0.534,�k��,3.0,��
2023/09/19,20:20,0.538,0.818,0.498,1.010,0.723,0.326,0.576,0.534,���k��,3.6,��
2023/09/19,20:30,0.539,0.817,0.497,1.009,0.722,0.326,0.576,0.534,��,4.1,��
2023/09/19,20:40,0.538,0.816,0.497,1.008,0.721,0.324,0.577,0.534,���k��,4.2,��
2023/09/19,20:50,0.537,0.818,0.497,1.009,0.722,0.326,0.577,0.534,���k��,4.9,��
2023/09/19,21:00,0.538,0.816,0.498,1.010,0.721,0.323,0.576,0.534,���k��,4.5,��
2023/09/19,21:10,0.538,0.817,0.496,1.008,0.724,0.326,0.577,0.535,���k��,3.9,��
2023/09/19,21:20,0.538,0.817,0.497,1.008,0.720,0.326,0.578,0.536,��,2.0,��
2023/09/19,21:30,0.539,0.817,0.497,1.010,0.722,0.325,0.576,0.534,��,2.6,��
2023/09/19,21:40,0.537,0.819,0.498,1.010,0.722,0.325,0.577,0.535,��,2.9,��
2023/09/19,21:50,0.539,0.819,0.496,1.007,0.722,0.326,0.576,0.536,���쐼,3.4,��
2023/09/19,22:00,0.537,0.816,0.495,1.007,0.723,0.325,0.575,0.535,���쐼,3.2,��
2023/09/19,22:10,0.538,0.817,0.496,1.009,0.722,0.325,0.576,0.535,���쐼,2.9,��
2023/09/19,22:20,0.537,0.818,0.496,1.010,0.723,0.326,0.576,0.537,��,3.1,��
2023/09/19,22:30,0.540,0.816,0.497,1.010,0.722,0.326,0.577,0.535,�k��,4.7,��
2023/09/19,22:40,0.538,0.817,0.495,1.007,0.724,0.325,0.576,0.536,��,2.2,��
2023/09/19,22:50,0.538,0.818,0.497,1.011,0.724,0.324,0.577,0.535,�k��,1.7,��
2023/09/19,23:00,0.537,0.818,0.495,1.011,0.722,0.324,0.576,0.535,�k�k��,3.4,��
2023/09/19,23:10,0.539,0.817,0.497,1.010,0.722,0.326,0.577,0.534,�k��,3.2,��
2023/09/19,23:20,0.538,0.819,0.497,1.011,0.723,0.325,0.577,0.535,�k�k��,2.3,��
2023/09/19,23:30,0.538,0.816,0.497,1.009,0.722,0.325,0.577,0.534,��,0.9,�L
2023/09/19,23:40,0.541,0.818,0.499,1.010,0.722,0.327,0.578,0.535,��,1.5,�L
2023/09/19,23:50,0.540,0.819,0.500,1.012,0.724,0.329,0.575,0.535,��쓌,3.4,�L
